Location: Hylvaty SDH
(49.9612°N, 16.4057°E)
Time: 21:10:58
(UTC+01:00)

Vanguard 1 Rocket - Pass Details

Date: 09 October 2020
Orbit: 656 x 4221 km, 34.3° (Epoch: 30 October)

Event Time Altitude Azimuth Distance (km) Brightness Sun altitude
Rises 19:41:08 0° 260° (W) 4,856 12.6 -14.7°
Reaches altitude 10° 19:44:03 10° 252° (WSW) 4,243 11.8 -15.1°
Maximum altitude 19:55:04 38° 190° (S) 3,705 10.4 -16.9°
Enters shadow 20:12:20 12° 134° (SE) 6,742 11.3 -19.6°
Drops below altitude 10° 20:13:42 10° 132° (SE) 7,016 - -19.8°
Sets 20:20:28 0° 126° (SE) 8,325 - -20.9°
